When you browse on this site, cookies collect data to enhance your experience and personalize the content and advertising you see.
Visit our Privacy Policy to learn more. By continuing to use the site, you agree to this use of cookies and data.
  • In Lithuania
  • List of Countries
  • For 7 days
  • Water Temperature
  • Weather Map
  • Weather Widgets
  • user-avatar
    Login

    Hourly Weather Homs

    Today, 27 May, Wednesday

    Time Temperature Precipitation Wind Pressure Humidity
    00:00 +22°C° 0 mm 1 mps 716 mmHg 44%
    01:00 +22°C° 0 mm 1 mps 715 mmHg 43%
    02:00 +22°C° 0 mm 1 mps 715 mmHg 43%
    03:00 +21°C° 0 mm 2 mps 715 mmHg 42%
    04:00 +20°C° 0 mm 2 mps 716 mmHg 41%
    05:00 +20°C° 0 mm 2 mps 716 mmHg 41%
    06:00 +24°C° 0 mm 2 mps 716 mmHg 34%
    07:00 +26°C° 0 mm 2 mps 716 mmHg 28%
    08:00 +29°C° 0 mm 2 mps 716 mmHg 22%
    09:00 +31°C° 0 mm 3 mps 717 mmHg 19%
    10:00 +34°C° 0 mm 3 mps 717 mmHg 17%
    11:00 +36°C° 0 mm 3 mps 717 mmHg 14%
    12:00 +36°C° 0 mm 5 mps 716 mmHg 17%
    13:00 +35°C° 0 mm 6 mps 716 mmHg 19%
    14:00 +35°C° 0 mm 7 mps 715 mmHg 22%
    15:00 +33°C° 0 mm 7 mps 715 mmHg 27%
    16:00 +31°C° 0 mm 8 mps 714 mmHg 32%
    17:00 +28°C° 0 mm 8 mps 714 mmHg 37%
    18:00 +26°C° 0 mm 8 mps 714 mmHg 43%
    19:00 +23°C° 0 mm 7 mps 715 mmHg 49%
    20:00 +21°C° 0 mm 6 mps 715 mmHg 56%
    21:00 +20°C° 0 mm 5 mps 715 mmHg 58%
    22:00 +20°C° 0 mm 5 mps 715 mmHg 61%
    23:00 +19°C° 0 mm 4 mps 715 mmHg 63%

    Tomorrow, 28 May, Thursday

    Time Temperature Precipitation Wind Pressure Humidity
    00:00 +19°C° 0 mm 5 mps 715 mmHg 66%
    01:00 +17°C° 0 mm 5 mps 715 mmHg 68%
    02:00 +17°C° 0 mm 5 mps 715 mmHg 71%
    03:00 +17°C° 0 mm 5 mps 715 mmHg 74%
    04:00 +17°C° 0 mm 4 mps 715 mmHg 76%
    05:00 +17°C° 0 mm 4 mps 715 mmHg 79%
    06:00 +19°C° 0 mm 5 mps 715 mmHg 70%
    07:00 +21°C° 0 mm 6 mps 716 mmHg 60%
    08:00 +22°C° 0 mm 6 mps 716 mmHg 51%
    09:00 +23°C° 0 mm 7 mps 716 mmHg 48%
    10:00 +24°C° 0 mm 8 mps 716 mmHg 45%
    11:00 +27°C° 0 mm 9 mps 717 mmHg 42%
    12:00 +26°C° 0 mm 10 mps 716 mmHg 40%
    13:00 +26°C° 0 mm 10 mps 716 mmHg 38%
    14:00 +26°C° 0 mm 10 mps 716 mmHg 37%
    15:00 +24°C° 0 mm 10 mps 715 mmHg 40%
    16:00 +23°C° 0 mm 10 mps 715 mmHg 44%
    17:00 +22°C° 0 mm 9 mps 715 mmHg 48%
    18:00 +19°C° 0 mm 9 mps 715 mmHg 55%
    19:00 +18°C° 0 mm 8 mps 715 mmHg 62%
    20:00 +16°C° 0 mm 7 mps 715 mmHg 69%
    21:00 +16°C° 0 mm 7 mps 715 mmHg 72%
    22:00 +15°C° 0 mm 7 mps 715 mmHg 75%
    23:00 +15°C° 0 mm 8 mps 715 mmHg 78%

    Day after tomorrow, 29 May, Friday

    Time Temperature Precipitation Wind Pressure Humidity
    00:00 +15°C° 0 mm 8 mps 715 mmHg 78%
    01:00 +15°C° 0 mm 8 mps 715 mmHg 78%
    02:00 +15°C° 0 mm 8 mps 715 mmHg 77%
    03:00 +15°C° 0 mm 8 mps 715 mmHg 77%
    04:00 +13°C° 0 mm 8 mps 715 mmHg 77%
    05:00 +13°C° 0 mm 8 mps 715 mmHg 76%
    06:00 +16°C° 0 mm 8 mps 715 mmHg 66%
    07:00 +17°C° 0 mm 9 mps 716 mmHg 55%
    08:00 +19°C° 0 mm 9 mps 716 mmHg 45%
    09:00 +21°C° 0 mm 10 mps 716 mmHg 41%
    10:00 +22°C° 0 mm 10 mps 717 mmHg 37%
    11:00 +23°C° 0 mm 11 mps 717 mmHg 33%
    12:00 +23°C° 0 mm 11 mps 717 mmHg 35%
    13:00 +23°C° 0 mm 12 mps 717 mmHg 36%
    14:00 +23°C° 0 mm 13 mps 716 mmHg 38%
    15:00 +22°C° 0 mm 12 mps 716 mmHg 42%
    16:00 +21°C° 0 mm 12 mps 716 mmHg 47%
    17:00 +19°C° 0 mm 11 mps 716 mmHg 51%
    18:00 +18°C° 0 mm 10 mps 716 mmHg 58%
    19:00 +17°C° 0 mm 8 mps 717 mmHg 65%
    20:00 +16°C° 0 mm 7 mps 717 mmHg 72%
    21:00 +15°C° 0 mm 6 mps 717 mmHg 74%
    22:00 +15°C° 0 mm 6 mps 717 mmHg 77%
    23:00 +15°C° 0 mm 6 mps 717 mmHg 79%

    30 May, Saturday

    Time Temperature Precipitation Wind Pressure Humidity
    00:00 +15°C° 0 mm 5 mps 717 mmHg 82%
    01:00 +14°C° 0 mm 5 mps 717 mmHg 84%
    02:00 +14°C° 0 mm 4 mps 717 mmHg 87%
    03:00 +14°C° 0 mm 4 mps 717 mmHg 87%
    04:00 +14°C° 0 mm 3 mps 717 mmHg 87%
    05:00 +14°C° 0 mm 3 mps 717 mmHg 88%
    06:00 +16°C° 0 mm 3 mps 717 mmHg 75%
    07:00 +18°C° 0 mm 3 mps 718 mmHg 63%
    08:00 +20°C° 0 mm 3 mps 718 mmHg 50%
    09:00 +22°C° 0 mm 3 mps 718 mmHg 42%
    10:00 +24°C° 0 mm 3 mps 718 mmHg 33%
    11:00 +26°C° 0 mm 3 mps 719 mmHg 24%
    12:00 +26°C° 0 mm 5 mps 718 mmHg 25%
    13:00 +27°C° 0 mm 6 mps 718 mmHg 26%
    14:00 +27°C° 0 mm 7 mps 718 mmHg 27%
    15:00 +26°C° 0 mm 7 mps 718 mmHg 30%
    16:00 +24°C° 0 mm 7 mps 717 mmHg 34%
    17:00 +23°C° 0 mm 6 mps 717 mmHg 37%
    18:00 +21°C° 0 mm 5 mps 717 mmHg 44%
    19:00 +20°C° 0 mm 4 mps 717 mmHg 51%
    20:00 +18°C° 0 mm 3 mps 717 mmHg 58%
    21:00 +18°C° 0 mm 3 mps 717 mmHg 60%
    22:00 +17°C° 0 mm 2 mps 718 mmHg 63%
    23:00 +17°C° 0 mm 2 mps 718 mmHg 65%

    31 May, Sunday

    Time Temperature Precipitation Wind Pressure Humidity
    00:00 +16°C° 0 mm 2 mps 717 mmHg 66%
    01:00 +16°C° 0 mm 1 mps 717 mmHg 66%
    02:00 +15°C° 0 mm 1 mps 717 mmHg 67%
    03:00 +15°C° 0 mm 1 mps 717 mmHg 66%
    04:00 +15°C° 0 mm 1 mps 717 mmHg 65%
    05:00 +14°C° 0 mm 0 mps 717 mmHg 64%
    06:00 +16°C° 0 mm 0 mps 717 mmHg 53%
    07:00 +21°C° 0 mm 1 mps 718 mmHg 41%
    08:00 +23°C° 0 mm 1 mps 718 mmHg 30%
    09:00 +25°C° 0 mm 1 mps 718 mmHg 25%
    10:00 +28°C° 0 mm 2 mps 718 mmHg 20%
    11:00 +30°C° 0 mm 2 mps 718 mmHg 15%
    12:00 +31°C° 0 mm 3 mps 718 mmHg 17%
    13:00 +32°C° 0 mm 4 mps 717 mmHg 18%
    14:00 +33°C° 0 mm 6 mps 717 mmHg 19%
    15:00 +32°C° 0 mm 6 mps 716 mmHg 22%
    16:00 +30°C° 0 mm 6 mps 716 mmHg 26%
    17:00 +28°C° 0 mm 6 mps 715 mmHg 30%
    18:00 +26°C° 0 mm 5 mps 715 mmHg 35%
    19:00 +23°C° 0 mm 4 mps 715 mmHg 41%
    20:00 +21°C° 0 mm 3 mps 715 mmHg 46%
    21:00 +21°C° 0 mm 2 mps 715 mmHg 49%
    22:00 +20°C° 0 mm 2 mps 715 mmHg 51%
    23:00 +19°C° 0 mm 2 mps 715 mmHg 53%

    1 June, Monday

    Time Temperature Precipitation Wind Pressure Humidity
    00:00 +19°C° 0 mm 2 mps 715 mmHg 54%
    01:00 +20°C° 0 mm 1 mps 715 mmHg 55%
    02:00 +19°C° 0 mm 1 mps 715 mmHg 57%
    03:00 +18°C° 0 mm 2 mps 715 mmHg 57%
    04:00 +18°C° 0 mm 2 mps 715 mmHg 58%
    05:00 +18°C° 0 mm 2 mps 715 mmHg 58%
    06:00 +20°C° 0 mm 2 mps 715 mmHg 47%
    07:00 +23°C° 0 mm 2 mps 715 mmHg 37%
    08:00 +25°C° 0 mm 3 mps 716 mmHg 26%
    09:00 +27°C° 0 mm 3 mps 716 mmHg 22%
    10:00 +29°C° 0 mm 4 mps 716 mmHg 19%
    11:00 +32°C° 0 mm 5 mps 716 mmHg 15%
    12:00 +32°C° 0 mm 6 mps 716 mmHg 16%
    13:00 +32°C° 0 mm 7 mps 715 mmHg 17%
    14:00 +32°C° 0 mm 9 mps 715 mmHg 17%
    15:00 +31°C° 0 mm 8 mps 715 mmHg 18%
    16:00 +29°C° 0 mm 7 mps 715 mmHg 20%
    17:00 +29°C° 0 mm 7 mps 715 mmHg 21%
    18:00 +27°C° 0 mm 5 mps 715 mmHg 24%
    19:00 +25°C° 0 mm 4 mps 715 mmHg 28%
    20:00 +24°C° 0 mm 3 mps 714 mmHg 32%
    21:00 +23°C° 0 mm 2 mps 714 mmHg 32%
    22:00 +23°C° 0 mm 2 mps 714 mmHg 31%
    23:00 +23°C° 0 mm 2 mps 714 mmHg 31%
    Show more